• In Belarus
  • List of Countries
  • For 7 days
  • Water Temperature
  • Satellite Maps
  • Weather Map
  • Weather Widgets
  • user-avatar
    Login

    Hourly Weather Nadvornaya

    Today, 11 December, Monday

    Time Temperature Precipitation Wind Pressure Humidity
    00:00 -6°C° 0 mm 5 mps 715 mmHg 68%
    01:00 -5°C° 0 mm 5 mps 715 mmHg 66%
    02:00 -2°C° 0 mm 3 mps 714 mmHg 74%
    03:00 -3°C° 0 mm 4 mps 714 mmHg 74%
    04:00 -3°C° 0 mm 4 mps 714 mmHg 75%
    05:00 -2°C° 0 mm 5 mps 715 mmHg 76%
    06:00 -1°C° 0.1 mm 5 mps 715 mmHg 77%
    07:00 -1°C° 0.1 mm 5 mps 715 mmHg 77%
    08:00 0°C° 0 mm 4 mps 715 mmHg 78%
    09:00 +1°C° 0.1 mm 4 mps 715 mmHg 79%
    10:00 +1°C° 0.1 mm 5 mps 715 mmHg 79%
    11:00 +2°C° 0.1 mm 5 mps 715 mmHg 79%
    12:00 +3°C° 0.1 mm 5 mps 715 mmHg 79%
    13:00 +5°C° 0.1 mm 5 mps 715 mmHg 78%
    14:00 +5°C° 0.1 mm 5 mps 715 mmHg 78%
    15:00 +5°C° 0 mm 5 mps 715 mmHg 79%
    16:00 +5°C° 0 mm 5 mps 715 mmHg 80%
    17:00 +4°C° 0 mm 4 mps 715 mmHg 81%
    18:00 +4°C° 0 mm 4 mps 716 mmHg 81%
    19:00 +4°C° 0 mm 4 mps 716 mmHg 82%
    20:00 +4°C° 0 mm 4 mps 716 mmHg 83%
    21:00 +4°C° 0 mm 4 mps 716 mmHg 82%
    22:00 +4°C° 0 mm 4 mps 716 mmHg 82%
    23:00 +4°C° 0 mm 4 mps 717 mmHg 81%

    Tomorrow, 12 December, Tuesday

    Time Temperature Precipitation Wind Pressure Humidity
    00:00 +5°C° 0 mm 4 mps 717 mmHg 80%
    01:00 +5°C° 0 mm 4 mps 717 mmHg 79%
    02:00 +5°C° 0 mm 5 mps 717 mmHg 79%
    03:00 +5°C° 0 mm 5 mps 717 mmHg 78%
    04:00 +6°C° 0 mm 5 mps 717 mmHg 76%
    05:00 +5°C° 0 mm 6 mps 717 mmHg 75%
    06:00 +5°C° 0 mm 6 mps 717 mmHg 75%
    07:00 +6°C° 0 mm 5 mps 717 mmHg 76%
    08:00 +6°C° 0 mm 5 mps 717 mmHg 76%
    09:00 +7°C° 0 mm 5 mps 718 mmHg 74%
    10:00 +8°C° 0 mm 6 mps 718 mmHg 72%
    11:00 +9°C° 0 mm 6 mps 719 mmHg 70%
    12:00 +9°C° 0 mm 6 mps 719 mmHg 70%
    13:00 +10°C° 0 mm 6 mps 719 mmHg 71%
    14:00 +10°C° 0 mm 5 mps 719 mmHg 72%
    15:00 +9°C° 0 mm 5 mps 720 mmHg 75%
    16:00 +8°C° 0 mm 4 mps 720 mmHg 78%
    17:00 +7°C° 0 mm 4 mps 720 mmHg 81%
    18:00 +7°C° 0 mm 4 mps 721 mmHg 82%
    19:00 +8°C° 0 mm 3 mps 721 mmHg 83%
    20:00 +8°C° 0 mm 3 mps 721 mmHg 84%
    21:00 +7°C° 0 mm 3 mps 721 mmHg 83%
    22:00 +7°C° 0 mm 3 mps 721 mmHg 82%
    23:00 +7°C° 0 mm 3 mps 722 mmHg 82%

    Day after tomorrow, 13 December, Wednesday

    Time Temperature Precipitation Wind Pressure Humidity
    00:00 +7°C° 0 mm 3 mps 722 mmHg 83%
    01:00 +7°C° 0 mm 3 mps 722 mmHg 84%
    02:00 +7°C° 0 mm 3 mps 722 mmHg 85%
    03:00 +5°C° 0.2 mm 3 mps 722 mmHg 87%
    04:00 +4°C° 0.2 mm 3 mps 722 mmHg 88%
    05:00 +3°C° 0.2 mm 3 mps 722 mmHg 90%
    06:00 +3°C° 0.8 mm 3 mps 723 mmHg 91%
    07:00 +2°C° 0.8 mm 3 mps 723 mmHg 92%
    08:00 +3°C° 0.8 mm 2 mps 723 mmHg 92%
    09:00 +3°C° 1.2 mm 2 mps 724 mmHg 92%
    10:00 +2°C° 1.2 mm 2 mps 724 mmHg 92%
    11:00 +2°C° 1.2 mm 2 mps 724 mmHg 92%
    12:00 +2°C° 0.5 mm 2 mps 724 mmHg 91%
    13:00 +3°C° 0.5 mm 1 mps 724 mmHg 91%
    14:00 +3°C° 0.5 mm 1 mps 724 mmHg 90%
    15:00 +3°C° 0.1 mm 1 mps 724 mmHg 91%
    16:00 +3°C° 0.1 mm 1 mps 724 mmHg 92%
    17:00 +1°C° 0.1 mm 0 mps 724 mmHg 93%
    18:00 +1°C° 0 mm 0 mps 723 mmHg 93%
    19:00 +2°C° 0 mm 1 mps 723 mmHg 93%
    20:00 +2°C° 0 mm 1 mps 723 mmHg 93%
    21:00 +2°C° 0 mm 1 mps 723 mmHg 93%
    22:00 +1°C° 0 mm 1 mps 723 mmHg 94%
    23:00 +1°C° 0 mm 1 mps 723 mmHg 94%

    14 December, Thursday

    Time Temperature Precipitation Wind Pressure Humidity
    00:00 +1°C° 0 mm 1 mps 722 mmHg 94%
    01:00 +1°C° 0 mm 1 mps 722 mmHg 94%
    02:00 +1°C° 0 mm 1 mps 722 mmHg 94%
    03:00 -2°C° 0 mm 2 mps 721 mmHg 93%
    04:00 -2°C° 0 mm 2 mps 721 mmHg 92%
    05:00 -2°C° 0 mm 2 mps 720 mmHg 92%
    06:00 -2°C° 0 mm 2 mps 720 mmHg 91%
    07:00 -2°C° 0 mm 2 mps 720 mmHg 90%
    08:00 -2°C° 0 mm 2 mps 720 mmHg 89%
    09:00 -1°C° 0 mm 2 mps 720 mmHg 85%
    10:00 +1°C° 0 mm 3 mps 720 mmHg 82%
    11:00 +2°C° 0 mm 3 mps 720 mmHg 79%
    12:00 +2°C° 0 mm 3 mps 719 mmHg 77%
    13:00 +3°C° 0 mm 3 mps 719 mmHg 76%
    14:00 +3°C° 0 mm 3 mps 718 mmHg 74%
    15:00 +3°C° 0 mm 3 mps 718 mmHg 77%
    16:00 +2°C° 0 mm 3 mps 718 mmHg 79%
    17:00 +1°C° 0 mm 3 mps 718 mmHg 81%
    18:00 +2°C° 0.1 mm 3 mps 717 mmHg 81%
    19:00 +2°C° 0.1 mm 3 mps 717 mmHg 80%
    20:00 +1°C° 0.1 mm 4 mps 716 mmHg 80%
    21:00 +2°C° 0.2 mm 3 mps 716 mmHg 81%
    22:00 +2°C° 0.2 mm 3 mps 716 mmHg 82%
    23:00 +2°C° 0.2 mm 3 mps 715 mmHg 82%

    15 December, Friday

    Time Temperature Precipitation Wind Pressure Humidity
    00:00 +1°C° 0.1 mm 4 mps 715 mmHg 83%
    01:00 +1°C° 0.1 mm 4 mps 714 mmHg 83%
    02:00 +1°C° 0.1 mm 4 mps 714 mmHg 83%
    03:00 +3°C° 0.2 mm 4 mps 714 mmHg 83%
    04:00 +3°C° 0.2 mm 4 mps 713 mmHg 83%
    05:00 +3°C° 0.2 mm 4 mps 713 mmHg 84%
    06:00 +3°C° 0.1 mm 4 mps 713 mmHg 83%
    07:00 +3°C° 0.1 mm 5 mps 713 mmHg 83%
    08:00 +3°C° 0.1 mm 5 mps 714 mmHg 82%
    09:00 +5°C° 0.1 mm 5 mps 714 mmHg 81%
    10:00 +5°C° 0.1 mm 5 mps 714 mmHg 80%
    11:00 +6°C° 0.1 mm 5 mps 715 mmHg 78%
    12:00 +6°C° 0.3 mm 4 mps 715 mmHg 80%
    13:00 +7°C° 0.3 mm 3 mps 714 mmHg 81%
    14:00 +6°C° 0.3 mm 2 mps 714 mmHg 82%
    15:00 +6°C° 0.7 mm 2 mps 714 mmHg 86%
    16:00 +6°C° 0.7 mm 1 mps 714 mmHg 89%
    17:00 +6°C° 0.7 mm 1 mps 713 mmHg 92%
    18:00 +5°C° 0.9 mm 1 mps 713 mmHg 93%
    19:00 +5°C° 0.9 mm 1 mps 712 mmHg 94%
    20:00 +5°C° 0.9 mm 1 mps 712 mmHg 95%
    21:00 +5°C° 0.5 mm 1 mps 711 mmHg 95%
    22:00 +5°C° 0.5 mm 1 mps 711 mmHg 95%
    23:00 +5°C° 0.5 mm 1 mps 710 mmHg 95%

    16 December, Saturday

    Time Temperature Precipitation Wind Pressure Humidity
    00:00 +5°C° 0.5 mm 1 mps 709 mmHg 94%
    01:00 +5°C° 0.5 mm 1 mps 709 mmHg 94%
    02:00 +5°C° 0.5 mm 1 mps 708 mmHg 94%
    03:00 +4°C° 0.4 mm 2 mps 708 mmHg 92%
    04:00 +4°C° 0.4 mm 3 mps 708 mmHg 90%
    05:00 +4°C° 0.4 mm 4 mps 708 mmHg 87%
    06:00 +3°C° 0.3 mm 5 mps 709 mmHg 86%
    07:00 +2°C° 0.3 mm 5 mps 710 mmHg 85%
    08:00 +1°C° 0.3 mm 5 mps 711 mmHg 83%
    09:00 +1°C° 0.2 mm 5 mps 712 mmHg 83%
    10:00 +1°C° 0.2 mm 5 mps 713 mmHg 83%
    11:00 0°C° 0.2 mm 4 mps 714 mmHg 84%
    12:00 +1°C° 0.1 mm 4 mps 715 mmHg 81%
    13:00 +1°C° 0.1 mm 4 mps 716 mmHg 78%
    14:00 +2°C° 0.1 mm 3 mps 717 mmHg 75%
    15:00 +2°C° 0 mm 3 mps 717 mmHg 78%
    16:00 +2°C° 0 mm 2 mps 718 mmHg 81%
    17:00 +1°C° 0 mm 2 mps 719 mmHg 84%
    18:00 +1°C° 0 mm 2 mps 719 mmHg 85%
    19:00 +2°C° 0 mm 1 mps 720 mmHg 85%
    20:00 +1°C° 0 mm 1 mps 720 mmHg 86%
    21:00 +1°C° 0 mm 1 mps 721 mmHg 86%
    22:00 +1°C° 0 mm 1 mps 721 mmHg 87%
    23:00 +1°C° 0 mm 1 mps 722 mmHg 87%
    Show more